owner,sensor,date,latitude,longitude,vertical_datum,sea_water_temperature,qcFlag
Anadarko,ioos:station:wmo:42379:1,2020-03-01T00:03:00Z,27.3620,-90.1810,47.2,78.0,11144222
Anadarko,ioos:station:wmo:42379:1,2020-03-01T00:23:00Z,27.3620,-90.1810,47.2,78.0,11144222
Anadarko,ioos:station:wmo:42379:1,2020-03-01T00:43:00Z,27.3620,-90.1810,47.2,78.0,11144222
Anadarko,ioos:station:wmo:42379:1,2020-03-01T01:03:00Z,27.3620,-90.1810,47.2,78.1,11144222
Anadarko,ioos:station:wmo:42379:1,2020-03-01T01:22:00Z,27.3620,-90.1810,47.2,77.7,11144222
Anadarko,ioos:station:wmo:42379:1,2020-03-01T01:41:00Z,27.3620,-90.1810,47.2,77.4,11144222
Anadarko,ioos:station:wmo:42379:1,2020-03-01T02:01:00Z,27.3620,-90.1810,47.2,77.8,11144222
Anadarko,ioos:station:wmo:42379:1,2020-03-01T02:21:00Z,27.3620,-90.1810,47.2,77.9,11144222
Anadarko,ioos:station:wmo:42379:1,2020-03-01T02:41:00Z,27.3620,-90.1810,47.2,77.6,11144222
Anadarko,ioos:station:wmo:42379:1,2020-03-01T03:01:00Z,27.3620,-90.1810,47.2,77.8,11144222
Anadarko,ioos:station:wmo:42379:1,2020-03-01T03:21:00Z,27.3620,-90.1810,47.2,77.5,11144222
Anadarko,ioos:station:wmo:42379:1,2020-03-01T03:41:00Z,27.3620,-90.1810,47.2,77.8,11144222
Anadarko,ioos:station:wmo:42379:1,2020-03-01T04:00:00Z,27.3620,-90.1810,47.2,77.9,11144222
Anadarko,ioos:station:wmo:42379:1,2020-03-01T04:20:00Z,27.3620,-90.1810,47.2,77.9,11144222
Anadarko,ioos:station:wmo:42379:1,2020-03-01T04:40:00Z,27.3620,-90.1810,47.2,77.7,11144222
Anadarko,ioos:station:wmo:42379:1,2020-03-01T05:00:00Z,27.3620,-90.1810,47.2,77.7,11144222
Anadarko,ioos:station:wmo:42379:1,2020-03-01T05:20:00Z,27.3620,-90.1810,47.2,77.7,11144222
Anadarko,ioos:station:wmo:42379:1,2020-03-01T05:40:00Z,27.3620,-90.1810,47.2,77.8,11144222
Anadarko,ioos:station:wmo:42379:1,2020-03-01T06:00:00Z,27.3620,-90.1810,47.2,78.0,11144222
Anadarko,ioos:station:wmo:42379:1,2020-03-01T06:20:00Z,27.3620,-90.1810,47.2,77.4,11144222
Anadarko,ioos:station:wmo:42379:1,2020-03-01T06:40:00Z,27.3620,-90.1810,47.2,77.7,11144222
Anadarko,ioos:station:wmo:42379:1,2020-03-01T07:00:00Z,27.3620,-90.1810,47.2,77.6,11144222
Anadarko,ioos:station:wmo:42379:1,2020-03-01T07:19:00Z,27.3620,-90.1810,47.2,77.4,11144222
Anadarko,ioos:station:wmo:42379:1,2020-03-01T07:39:00Z,27.3620,-90.1810,47.2,77.2,11144222
Anadarko,ioos:station:wmo:42379:1,2020-03-01T07:59:00Z,27.3620,-90.1810,47.2,77.6,11144222
Anadarko,ioos:station:wmo:42379:1,2020-03-01T08:19:00Z,27.3620,-90.1810,47.2,78.0,11144222
Anadarko,ioos:station:wmo:42379:1,2020-03-01T08:38:00Z,27.3620,-90.1810,47.2,78.0,11144222
Anadarko,ioos:station:wmo:42379:1,2020-03-01T08:57:00Z,27.3620,-90.1810,47.2,78.0,11144222
Anadarko,ioos:station:wmo:42379:1,2020-03-01T09:17:00Z,27.3620,-90.1810,47.2,77.8,11144222
Anadarko,ioos:station:wmo:42379:1,2020-03-01T09:37:00Z,27.3620,-90.1810,47.2,78.1,11144222
Anadarko,ioos:station:wmo:42379:1,2020-03-01T09:57:00Z,27.3620,-90.1810,47.2,78.0,11144222
Anadarko,ioos:station:wmo:42379:1,2020-03-01T10:17:00Z,27.3620,-90.1810,47.2,78.0,11144222
Anadarko,ioos:station:wmo:42379:1,2020-03-01T10:37:00Z,27.3620,-90.1810,47.2,77.9,11144222
Anadarko,ioos:station:wmo:42379:1,2020-03-01T10:57:00Z,27.3620,-90.1810,47.2,78.0,11144222
Anadarko,ioos:station:wmo:42379:1,2020-03-01T11:17:00Z,27.3620,-90.1810,47.2,78.0,11144222
Anadarko,ioos:station:wmo:42379:1,2020-03-01T11:37:00Z,27.3620,-90.1810,47.2,77.9,11144222
Anadarko,ioos:station:wmo:42379:1,2020-03-01T11:57:00Z,27.3620,-90.1810,47.2,77.6,11144222
Anadarko,ioos:station:wmo:42379:1,2020-03-01T12:17:00Z,27.3620,-90.1810,47.2,77.5,11144222
Anadarko,ioos:station:wmo:42379:1,2020-03-01T12:37:00Z,27.3620,-90.1810,47.2,78.1,11144222
Anadarko,ioos:station:wmo:42379:1,2020-03-01T12:57:00Z,27.3620,-90.1810,47.2,78.0,11144222
Anadarko,ioos:station:wmo:42379:1,2020-03-01T13:17:00Z,27.3620,-90.1810,47.2,77.9,11144222
Anadarko,ioos:station:wmo:42379:1,2020-03-01T13:37:00Z,27.3620,-90.1810,47.2,78.1,11144222
Anadarko,ioos:station:wmo:42379:1,2020-03-01T13:57:00Z,27.3620,-90.1810,47.2,77.9,11144222
Anadarko,ioos:station:wmo:42379:1,2020-03-01T14:17:00Z,27.3620,-90.1810,47.2,78.0,11144222
Anadarko,ioos:station:wmo:42379:1,2020-03-01T14:37:00Z,27.3620,-90.1810,47.2,77.6,11144222
Anadarko,ioos:station:wmo:42379:1,2020-03-01T14:57:00Z,27.3620,-90.1810,47.2,78.0,11144222
Anadarko,ioos:station:wmo:42379:1,2020-03-01T15:17:00Z,27.3620,-90.1810,47.2,78.0,11144222
Anadarko,ioos:station:wmo:42379:1,2020-03-01T15:37:00Z,27.3620,-90.1810,47.2,78.1,11144222
Anadarko,ioos:station:wmo:42379:1,2020-03-01T15:57:00Z,27.3620,-90.1810,47.2,77.9,11144222
Anadarko,ioos:station:wmo:42379:1,2020-03-01T16:16:00Z,27.3620,-90.1810,47.2,77.8,11144222
Anadarko,ioos:station:wmo:42379:1,2020-03-01T16:36:00Z,27.3620,-90.1810,47.2,77.9,11144222
Anadarko,ioos:station:wmo:42379:1,2020-03-01T16:56:00Z,27.3620,-90.1810,47.2,77.8,11144222
Anadarko,ioos:station:wmo:42379:1,2020-03-01T17:16:00Z,27.3620,-90.1810,47.2,77.6,11144222
Anadarko,ioos:station:wmo:42379:1,2020-03-01T17:36:00Z,27.3620,-90.1810,47.2,77.9,11144222
Anadarko,ioos:station:wmo:42379:1,2020-03-01T17:56:00Z,27.3620,-90.1810,47.2,77.9,11144222
Anadarko,ioos:station:wmo:42379:1,2020-03-01T18:16:00Z,27.3620,-90.1810,47.2,78.0,11144222
Anadarko,ioos:station:wmo:42379:1,2020-03-01T18:36:00Z,27.3620,-90.1810,47.2,77.9,11144222
Anadarko,ioos:station:wmo:42379:1,2020-03-01T18:56:00Z,27.3620,-90.1810,47.2,77.7,11144222
Anadarko,ioos:station:wmo:42379:1,2020-03-01T19:16:00Z,27.3620,-90.1810,47.2,77.8,11144222
Anadarko,ioos:station:wmo:42379:1,2020-03-01T19:36:00Z,27.3620,-90.1810,47.2,77.8,11144222
Anadarko,ioos:station:wmo:42379:1,2020-03-01T19:56:00Z,27.3620,-90.1810,47.2,78.0,11144222
Anadarko,ioos:station:wmo:42379:1,2020-03-01T20:16:00Z,27.3620,-90.1810,47.2,78.0,11144222
Anadarko,ioos:station:wmo:42379:1,2020-03-01T20:36:00Z,27.3620,-90.1810,47.2,77.9,11144222
Anadarko,ioos:station:wmo:42379:1,2020-03-01T20:56:00Z,27.3620,-90.1810,47.2,77.9,11144222
Anadarko,ioos:station:wmo:42379:1,2020-03-01T21:16:00Z,27.3620,-90.1810,47.2,77.4,11144222
Anadarko,ioos:station:wmo:42379:1,2020-03-01T21:35:00Z,27.3620,-90.1810,47.2,78.0,11144222
Anadarko,ioos:station:wmo:42379:1,2020-03-01T21:55:00Z,27.3620,-90.1810,47.2,78.0,11144222
Anadarko,ioos:station:wmo:42379:1,2020-03-01T22:15:00Z,27.3620,-90.1810,47.2,78.0,11144222
Anadarko,ioos:station:wmo:42379:1,2020-03-01T22:35:00Z,27.3620,-90.1810,47.2,78.0,11144222
Anadarko,ioos:station:wmo:42379:1,2020-03-01T22:55:00Z,27.3620,-90.1810,47.2,77.9,11144222
Anadarko,ioos:station:wmo:42379:1,2020-03-01T23:15:00Z,27.3620,-90.1810,47.2,77.8,11144222
Anadarko,ioos:station:wmo:42379:1,2020-03-01T23:35:00Z,27.3620,-90.1810,47.2,77.6,11144222
Anadarko,ioos:station:wmo:42379:1,2020-03-01T23:55:00Z,27.3620,-90.1810,47.2,77.6,11144222
Anadarko,ioos:station:wmo:42379:1,2020-03-02T00:15:00Z,27.3620,-90.1810,47.2,77.3,11144222
Anadarko,ioos:station:wmo:42379:1,2020-03-02T00:34:00Z,27.3620,-90.1810,47.2,77.9,11144222
Anadarko,ioos:station:wmo:42379:1,2020-03-02T00:53:00Z,27.3620,-90.1810,47.2,77.7,11144222
Anadarko,ioos:station:wmo:42379:1,2020-03-02T01:13:00Z,27.3620,-90.1810,47.2,77.9,11144222
Anadarko,ioos:station:wmo:42379:1,2020-03-02T01:33:00Z,27.3620,-90.1810,47.2,78.0,11144222
Anadarko,ioos:station:wmo:42379:1,2020-03-02T01:53:00Z,27.3620,-90.1810,47.2,77.9,11144222
Anadarko,ioos:station:wmo:42379:1,2020-03-02T02:13:00Z,27.3620,-90.1810,47.2,77.8,11144222
Anadarko,ioos:station:wmo:42379:1,2020-03-02T02:33:00Z,27.3620,-90.1810,47.2,78.0,11144222
Anadarko,ioos:station:wmo:42379:1,2020-03-02T02:52:00Z,27.3620,-90.1810,47.2,78.0,11144222
Anadarko,ioos:station:wmo:42379:1,2020-03-02T03:11:00Z,27.3620,-90.1810,47.2,78.0,11144222
Anadarko,ioos:station:wmo:42379:1,2020-03-02T03:31:00Z,27.3620,-90.1810,47.2,78.0,11144222
Anadarko,ioos:station:wmo:42379:1,2020-03-02T03:51:00Z,27.3620,-90.1810,47.2,78.1,11144222
Anadarko,ioos:station:wmo:42379:1,2020-03-02T04:11:00Z,27.3620,-90.1810,47.2,78.0,11144222
Anadarko,ioos:station:wmo:42379:1,2020-03-02T04:31:00Z,27.3620,-90.1810,47.2,78.1,11144222
Anadarko,ioos:station:wmo:42379:1,2020-03-02T04:50:00Z,27.3620,-90.1810,47.2,78.1,11144222
Anadarko,ioos:station:wmo:42379:1,2020-03-02T05:09:00Z,27.3620,-90.1810,47.2,78.0,11144222
Anadarko,ioos:station:wmo:42379:1,2020-03-02T05:29:00Z,27.3620,-90.1810,47.2,77.9,11144222
Anadarko,ioos:station:wmo:42379:1,2020-03-02T05:48:00Z,27.3620,-90.1810,47.2,77.4,11144222
Anadarko,ioos:station:wmo:42379:1,2020-03-02T06:08:00Z,27.3620,-90.1810,47.2,77.7,11144222
Anadarko,ioos:station:wmo:42379:1,2020-03-02T06:28:00Z,27.3620,-90.1810,47.2,77.7,11144222
Anadarko,ioos:station:wmo:42379:1,2020-03-02T06:48:00Z,27.3620,-90.1810,47.2,78.1,11144222
Anadarko,ioos:station:wmo:42379:1,2020-03-02T07:08:00Z,27.3620,-90.1810,47.2,78.1,11144222
Anadarko,ioos:station:wmo:42379:1,2020-03-02T07:28:00Z,27.3620,-90.1810,47.2,78.0,11144222
Anadarko,ioos:station:wmo:42379:1,2020-03-02T07:48:00Z,27.3620,-90.1810,47.2,77.6,11144222
Anadarko,ioos:station:wmo:42379:1,2020-03-02T08:08:00Z,27.3620,-90.1810,47.2,78.2,11144222
Anadarko,ioos:station:wmo:42379:1,2020-03-02T08:28:00Z,27.3620,-90.1810,47.2,78.2,11144222
Anadarko,ioos:station:wmo:42379:1,2020-03-02T08:48:00Z,27.3620,-90.1810,47.2,78.2,11144222
Anadarko,ioos:station:wmo:42379:1,2020-03-02T09:08:00Z,27.3620,-90.1810,47.2,78.2,11144222
Anadarko,ioos:station:wmo:42379:1,2020-03-02T09:28:00Z,27.3620,-90.1810,47.2,78.3,11144222
Anadarko,ioos:station:wmo:42379:1,2020-03-02T09:48:00Z,27.3620,-90.1810,47.2,78.3,11144222
Anadarko,ioos:station:wmo:42379:1,2020-03-02T10:08:00Z,27.3620,-90.1810,47.2,78.3,11144222
Anadarko,ioos:station:wmo:42379:1,2020-03-02T10:28:00Z,27.3620,-90.1810,47.2,78.4,11144222
Anadarko,ioos:station:wmo:42379:1,2020-03-02T10:48:00Z,27.3620,-90.1810,47.2,78.3,11144222
Anadarko,ioos:station:wmo:42379:1,2020-03-02T11:08:00Z,27.3620,-90.1810,47.2,78.2,11144222
Anadarko,ioos:station:wmo:42379:1,2020-03-02T11:28:00Z,27.3620,-90.1810,47.2,78.3,11144222
Anadarko,ioos:station:wmo:42379:1,2020-03-02T11:48:00Z,27.3620,-90.1810,47.2,78.3,11144222
Anadarko,ioos:station:wmo:42379:1,2020-03-02T12:08:00Z,27.3620,-90.1810,47.2,77.8,11144222
Anadarko,ioos:station:wmo:42379:1,2020-03-02T12:28:00Z,27.3620,-90.1810,47.2,78.5,11144222
Anadarko,ioos:station:wmo:42379:1,2020-03-02T12:48:00Z,27.3620,-90.1810,47.2,78.4,11144222
Anadarko,ioos:station:wmo:42379:1,2020-03-02T13:08:00Z,27.3620,-90.1810,47.2,78.0,11144222
Anadarko,ioos:station:wmo:42379:1,2020-03-02T13:28:00Z,27.3620,-90.1810,47.2,78.6,11144222
Anadarko,ioos:station:wmo:42379:1,2020-03-02T13:48:00Z,27.3620,-90.1810,47.2,78.4,11144222
Anadarko,ioos:station:wmo:42379:1,2020-03-02T14:08:00Z,27.3620,-90.1810,47.2,77.9,11144222
Anadarko,ioos:station:wmo:42379:1,2020-03-02T14:28:00Z,27.3620,-90.1810,47.2,78.4,11144222
Anadarko,ioos:station:wmo:42379:1,2020-03-02T14:48:00Z,27.3620,-90.1810,47.2,78.5,11144222
Anadarko,ioos:station:wmo:42379:1,2020-03-02T15:08:00Z,27.3620,-90.1810,47.2,78.4,11144222
Anadarko,ioos:station:wmo:42379:1,2020-03-02T15:28:00Z,27.3620,-90.1810,47.2,78.4,11144222
Anadarko,ioos:station:wmo:42379:1,2020-03-02T15:48:00Z,27.3620,-90.1810,47.2,77.9,11144222
Anadarko,ioos:station:wmo:42379:1,2020-03-02T16:08:00Z,27.3620,-90.1810,47.2,77.9,11144222
Anadarko,ioos:station:wmo:42379:1,2020-03-02T16:28:00Z,27.3620,-90.1810,47.2,77.8,11144222
Anadarko,ioos:station:wmo:42379:1,2020-03-02T16:48:00Z,27.3620,-90.1810,47.2,77.8,11144222
Anadarko,ioos:station:wmo:42379:1,2020-03-02T17:08:00Z,27.3620,-90.1810,47.2,78.4,11144222
Anadarko,ioos:station:wmo:42379:1,2020-03-02T17:28:00Z,27.3620,-90.1810,47.2,78.4,11144222
Anadarko,ioos:station:wmo:42379:1,2020-03-02T17:47:00Z,27.3620,-90.1810,47.2,78.4,11144222
Anadarko,ioos:station:wmo:42379:1,2020-03-02T18:07:00Z,27.3620,-90.1810,47.2,78.6,11144222
Anadarko,ioos:station:wmo:42379:1,2020-03-02T18:26:00Z,27.3620,-90.1810,47.2,78.3,11144222
Anadarko,ioos:station:wmo:42379:1,2020-03-02T18:46:00Z,27.3620,-90.1810,47.2,78.2,11144222
Anadarko,ioos:station:wmo:42379:1,2020-03-02T19:06:00Z,27.3620,-90.1810,47.2,78.2,11144222
Anadarko,ioos:station:wmo:42379:1,2020-03-02T19:26:00Z,27.3620,-90.1810,47.2,78.3,11144222
Anadarko,ioos:station:wmo:42379:1,2020-03-02T19:46:00Z,27.3620,-90.1810,47.2,78.3,11144222
Anadarko,ioos:station:wmo:42379:1,2020-03-02T20:06:00Z,27.3620,-90.1810,47.2,78.3,11144222
Anadarko,ioos:station:wmo:42379:1,2020-03-02T20:26:00Z,27.3620,-90.1810,47.2,78.4,11144222
Anadarko,ioos:station:wmo:42379:1,2020-03-02T20:46:00Z,27.3620,-90.1810,47.2,78.3,11144222
Anadarko,ioos:station:wmo:42379:1,2020-03-02T21:06:00Z,27.3620,-90.1810,47.2,78.4,11144222
Anadarko,ioos:station:wmo:42379:1,2020-03-02T21:26:00Z,27.3620,-90.1810,47.2,78.4,11144222
Anadarko,ioos:station:wmo:42379:1,2020-03-02T21:46:00Z,27.3620,-90.1810,47.2,78.4,11144222
Anadarko,ioos:station:wmo:42379:1,2020-03-02T22:06:00Z,27.3620,-90.1810,47.2,78.4,11144222
Anadarko,ioos:station:wmo:42379:1,2020-03-02T22:26:00Z,27.3620,-90.1810,47.2,78.3,11144222
Anadarko,ioos:station:wmo:42379:1,2020-03-02T22:46:00Z,27.3620,-90.1810,47.2,78.4,11144222
Anadarko,ioos:station:wmo:42379:1,2020-03-02T23:06:00Z,27.3620,-90.1810,47.2,78.4,11144222
Anadarko,ioos:station:wmo:42379:1,2020-03-02T23:26:00Z,27.3620,-90.1810,47.2,78.4,11144222
Anadarko,ioos:station:wmo:42379:1,2020-03-02T23:46:00Z,27.3620,-90.1810,47.2,78.6,11144222
Anadarko,ioos:station:wmo:42379:1,2020-03-03T00:06:00Z,27.3620,-90.1810,47.2,78.7,11144222
Anadarko,ioos:station:wmo:42379:1,2020-03-03T00:26:00Z,27.3620,-90.1810,47.2,78.8,11144222
Anadarko,ioos:station:wmo:42379:1,2020-03-03T00:46:00Z,27.3620,-90.1810,47.2,78.7,11144222
Anadarko,ioos:station:wmo:42379:1,2020-03-03T01:06:00Z,27.3620,-90.1810,47.2,78.8,11144222
Anadarko,ioos:station:wmo:42379:1,2020-03-03T01:26:00Z,27.3620,-90.1810,47.2,78.8,11144222
Anadarko,ioos:station:wmo:42379:1,2020-03-03T01:46:00Z,27.3620,-90.1810,47.2,78.7,11144222
Anadarko,ioos:station:wmo:42379:1,2020-03-03T02:06:00Z,27.3620,-90.1810,47.2,78.3,11144222
Anadarko,ioos:station:wmo:42379:1,2020-03-03T02:26:00Z,27.3620,-90.1810,47.2,78.7,11144222
Anadarko,ioos:station:wmo:42379:1,2020-03-03T02:46:00Z,27.3620,-90.1810,47.2,78.3,11144222
Anadarko,ioos:station:wmo:42379:1,2020-03-03T03:06:00Z,27.3620,-90.1810,47.2,78.8,11144222
Anadarko,ioos:station:wmo:42379:1,2020-03-03T03:26:00Z,27.3620,-90.1810,47.2,78.7,11144222
Anadarko,ioos:station:wmo:42379:1,2020-03-03T03:46:00Z,27.3620,-90.1810,47.2,78.7,11144222
Anadarko,ioos:station:wmo:42379:1,2020-03-03T04:06:00Z,27.3620,-90.1810,47.2,78.8,11144222
Anadarko,ioos:station:wmo:42379:1,2020-03-03T04:26:00Z,27.3620,-90.1810,47.2,78.7,11144222
Anadarko,ioos:station:wmo:42379:1,2020-03-03T04:46:00Z,27.3620,-90.1810,47.2,78.7,11144222
Anadarko,ioos:station:wmo:42379:1,2020-03-03T05:06:00Z,27.3620,-90.1810,47.2,78.8,11144222
Anadarko,ioos:station:wmo:42379:1,2020-03-03T05:26:00Z,27.3620,-90.1810,47.2,78.7,11144222
Anadarko,ioos:station:wmo:42379:1,2020-03-03T05:46:00Z,27.3620,-90.1810,47.2,78.4,11144222
Anadarko,ioos:station:wmo:42379:1,2020-03-03T06:06:00Z,27.3620,-90.1810,47.2,78.8,11144222
Anadarko,ioos:station:wmo:42379:1,2020-03-03T06:26:00Z,27.3620,-90.1810,47.2,78.8,11144222
Anadarko,ioos:station:wmo:42379:1,2020-03-03T06:46:00Z,27.3620,-90.1810,47.2,78.4,11144222
Anadarko,ioos:station:wmo:42379:1,2020-03-03T07:06:00Z,27.3620,-90.1810,47.2,78.8,11144222
Anadarko,ioos:station:wmo:42379:1,2020-03-03T07:26:00Z,27.3620,-90.1810,47.2,78.8,11144222
Anadarko,ioos:station:wmo:42379:1,2020-03-03T07:46:00Z,27.3620,-90.1810,47.2,78.8,11144222
Anadarko,ioos:station:wmo:42379:1,2020-03-03T08:06:00Z,27.3620,-90.1810,47.2,78.4,11144222
Anadarko,ioos:station:wmo:42379:1,2020-03-03T08:26:00Z,27.3620,-90.1810,47.2,78.8,11144222
Anadarko,ioos:station:wmo:42379:1,2020-03-03T08:46:00Z,27.3620,-90.1810,47.2,78.7,11144222
Anadarko,ioos:station:wmo:42379:1,2020-03-03T09:06:00Z,27.3620,-90.1810,47.2,78.7,11144222
Anadarko,ioos:station:wmo:42379:1,2020-03-03T09:26:00Z,27.3620,-90.1810,47.2,78.6,11144222
Anadarko,ioos:station:wmo:42379:1,2020-03-03T09:46:00Z,27.3620,-90.1810,47.2,77.9,11144222
Anadarko,ioos:station:wmo:42379:1,2020-03-03T10:06:00Z,27.3620,-90.1810,47.2,78.8,11144222
Anadarko,ioos:station:wmo:42379:1,2020-03-03T10:26:00Z,27.3620,-90.1810,47.2,78.8,11144222
Anadarko,ioos:station:wmo:42379:1,2020-03-03T10:46:00Z,27.3620,-90.1810,47.2,78.8,11144222
Anadarko,ioos:station:wmo:42379:1,2020-03-03T11:06:00Z,27.3620,-90.1810,47.2,78.7,11144222
Anadarko,ioos:station:wmo:42379:1,2020-03-03T11:26:00Z,27.3620,-90.1810,47.2,78.7,11144222
Anadarko,ioos:station:wmo:42379:1,2020-03-03T11:46:00Z,27.3620,-90.1810,47.2,78.7,11144222
Anadarko,ioos:station:wmo:42379:1,2020-03-03T12:06:00Z,27.3620,-90.1810,47.2,78.8,11144222
Anadarko,ioos:station:wmo:42379:1,2020-03-03T12:26:00Z,27.3620,-90.1810,47.2,78.7,11144222
Anadarko,ioos:station:wmo:42379:1,2020-03-03T12:46:00Z,27.3620,-90.1810,47.2,78.7,11144222
Anadarko,ioos:station:wmo:42379:1,2020-03-03T13:06:00Z,27.3620,-90.1810,47.2,78.8,11144222
Anadarko,ioos:station:wmo:42379:1,2020-03-03T13:26:00Z,27.3620,-90.1810,47.2,78.7,11144222
Anadarko,ioos:station:wmo:42379:1,2020-03-03T13:46:00Z,27.3620,-90.1810,47.2,78.8,11144222
Anadarko,ioos:station:wmo:42379:1,2020-03-03T14:06:00Z,27.3620,-90.1810,47.2,78.8,11144222
Anadarko,ioos:station:wmo:42379:1,2020-03-03T14:25:00Z,27.3620,-90.1810,47.2,78.7,11144222
Anadarko,ioos:station:wmo:42379:1,2020-03-03T14:45:00Z,27.3620,-90.1810,47.2,78.8,11144222
Anadarko,ioos:station:wmo:42379:1,2020-03-03T15:05:00Z,27.3620,-90.1810,47.2,78.7,11144222
Anadarko,ioos:station:wmo:42379:1,2020-03-03T15:25:00Z,27.3620,-90.1810,47.2,78.8,11144222
Anadarko,ioos:station:wmo:42379:1,2020-03-03T15:45:00Z,27.3620,-90.1810,47.2,78.8,11144222
Anadarko,ioos:station:wmo:42379:1,2020-03-03T16:05:00Z,27.3620,-90.1810,47.2,78.8,11144222
Anadarko,ioos:station:wmo:42379:1,2020-03-03T16:25:00Z,27.3620,-90.1810,47.2,78.7,11144222
Anadarko,ioos:station:wmo:42379:1,2020-03-03T16:45:00Z,27.3620,-90.1810,47.2,79.1,11144222
Anadarko,ioos:station:wmo:42379:1,2020-03-03T17:04:00Z,27.3620,-90.1810,47.2,78.7,11144222
Anadarko,ioos:station:wmo:42379:1,2020-03-03T17:24:00Z,27.3620,-90.1810,47.2,78.7,11144222
Anadarko,ioos:station:wmo:42379:1,2020-03-03T17:44:00Z,27.3620,-90.1810,47.2,78.8,11144222
Anadarko,ioos:station:wmo:42379:1,2020-03-03T18:03:00Z,27.3620,-90.1810,47.2,78.6,11144222
Anadarko,ioos:station:wmo:42379:1,2020-03-03T18:23:00Z,27.3620,-90.1810,47.2,78.7,11144222
Anadarko,ioos:station:wmo:42379:1,2020-03-03T18:43:00Z,27.3620,-90.1810,47.2,78.6,11144222
Anadarko,ioos:station:wmo:42379:1,2020-03-03T19:03:00Z,27.3620,-90.1810,47.2,78.7,11144222
Anadarko,ioos:station:wmo:42379:1,2020-03-03T19:23:00Z,27.3620,-90.1810,47.2,78.7,11144222
Anadarko,ioos:station:wmo:42379:1,2020-03-03T19:43:00Z,27.3620,-90.1810,47.2,78.8,11144222
Anadarko,ioos:station:wmo:42379:1,2020-03-03T20:03:00Z,27.3620,-90.1810,47.2,78.7,11144222
Anadarko,ioos:station:wmo:42379:1,2020-03-03T20:23:00Z,27.3620,-90.1810,47.2,78.8,11144222
Anadarko,ioos:station:wmo:42379:1,2020-03-03T20:43:00Z,27.3620,-90.1810,47.2,78.8,11144222
Anadarko,ioos:station:wmo:42379:1,2020-03-03T21:03:00Z,27.3620,-90.1810,47.2,78.7,11144222
Anadarko,ioos:station:wmo:42379:1,2020-03-03T21:23:00Z,27.3620,-90.1810,47.2,78.6,11144222
Anadarko,ioos:station:wmo:42379:1,2020-03-03T21:43:00Z,27.3620,-90.1810,47.2,78.8,11144222
Anadarko,ioos:station:wmo:42379:1,2020-03-03T22:03:00Z,27.3620,-90.1810,47.2,78.8,11144222
Anadarko,ioos:station:wmo:42379:1,2020-03-03T22:23:00Z,27.3620,-90.1810,47.2,78.7,11144222
Anadarko,ioos:station:wmo:42379:1,2020-03-03T22:43:00Z,27.3620,-90.1810,47.2,78.7,11144222
Anadarko,ioos:station:wmo:42379:1,2020-03-03T23:03:00Z,27.3620,-90.1810,47.2,78.7,11144222
Anadarko,ioos:station:wmo:42379:1,2020-03-03T23:23:00Z,27.3620,-90.1810,47.2,78.8,11144222
Anadarko,ioos:station:wmo:42379:1,2020-03-03T23:43:00Z,27.3620,-90.1810,47.2,78.6,11144222
Anadarko,ioos:station:wmo:42379:1,2020-03-04T00:03:00Z,27.3620,-90.1810,47.2,78.5,11144222
Anadarko,ioos:station:wmo:42379:1,2020-03-04T00:23:00Z,27.3620,-90.1810,47.2,78.7,11144222
Anadarko,ioos:station:wmo:42379:1,2020-03-04T00:43:00Z,27.3620,-90.1810,47.2,78.7,11144222
Anadarko,ioos:station:wmo:42379:1,2020-03-04T01:03:00Z,27.3620,-90.1810,47.2,78.6,11144222
Anadarko,ioos:station:wmo:42379:1,2020-03-04T01:23:00Z,27.3620,-90.1810,47.2,78.5,11144222
Anadarko,ioos:station:wmo:42379:1,2020-03-04T01:43:00Z,27.3620,-90.1810,47.2,78.5,11144222
Anadarko,ioos:station:wmo:42379:1,2020-03-04T02:03:00Z,27.3620,-90.1810,47.2,78.6,11144222
Anadarko,ioos:station:wmo:42379:1,2020-03-04T02:23:00Z,27.3620,-90.1810,47.2,78.6,11144222
Anadarko,ioos:station:wmo:42379:1,2020-03-04T02:43:00Z,27.3620,-90.1810,47.2,78.6,11144222
Anadarko,ioos:station:wmo:42379:1,2020-03-04T03:03:00Z,27.3620,-90.1810,47.2,78.6,11144222
Anadarko,ioos:station:wmo:42379:1,2020-03-04T03:23:00Z,27.3620,-90.1810,47.2,78.6,11144222
Anadarko,ioos:station:wmo:42379:1,2020-03-04T03:43:00Z,27.3620,-90.1810,47.2,78.6,11144222
Anadarko,ioos:station:wmo:42379:1,2020-03-04T04:03:00Z,27.3620,-90.1810,47.2,78.4,11144222
Anadarko,ioos:station:wmo:42379:1,2020-03-04T04:23:00Z,27.3620,-90.1810,47.2,78.5,11144222
Anadarko,ioos:station:wmo:42379:1,2020-03-04T04:43:00Z,27.3620,-90.1810,47.2,78.8,11144222
Anadarko,ioos:station:wmo:42379:1,2020-03-04T05:03:00Z,27.3620,-90.1810,47.2,78.8,11144222
Anadarko,ioos:station:wmo:42379:1,2020-03-04T05:23:00Z,27.3620,-90.1810,47.2,78.9,11144222
Anadarko,ioos:station:wmo:42379:1,2020-03-04T05:43:00Z,27.3620,-90.1810,47.2,78.8,11144222
Anadarko,ioos:station:wmo:42379:1,2020-03-04T06:03:00Z,27.3620,-90.1810,47.2,78.7,11144222
Anadarko,ioos:station:wmo:42379:1,2020-03-04T06:23:00Z,27.3620,-90.1810,47.2,78.8,11144222
Anadarko,ioos:station:wmo:42379:1,2020-03-04T06:43:00Z,27.3620,-90.1810,47.2,78.5,11144222
Anadarko,ioos:station:wmo:42379:1,2020-03-04T07:03:00Z,27.3620,-90.1810,47.2,78.4,11144222
Anadarko,ioos:station:wmo:42379:1,2020-03-04T07:23:00Z,27.3620,-90.1810,47.2,79.0,11144222
Anadarko,ioos:station:wmo:42379:1,2020-03-04T07:43:00Z,27.3620,-90.1810,47.2,78.4,11144222
Anadarko,ioos:station:wmo:42379:1,2020-03-04T08:03:00Z,27.3620,-90.1810,47.2,78.5,11144222
Anadarko,ioos:station:wmo:42379:1,2020-03-04T08:23:00Z,27.3620,-90.1810,47.2,78.4,11144222
Anadarko,ioos:station:wmo:42379:1,2020-03-04T08:43:00Z,27.3620,-90.1810,47.2,78.4,11144222
Anadarko,ioos:station:wmo:42379:1,2020-03-04T09:03:00Z,27.3620,-90.1810,47.2,78.5,11144222
Anadarko,ioos:station:wmo:42379:1,2020-03-04T09:23:00Z,27.3620,-90.1810,47.2,78.5,11144222
Anadarko,ioos:station:wmo:42379:1,2020-03-04T09:43:00Z,27.3620,-90.1810,47.2,78.5,11144222
Anadarko,ioos:station:wmo:42379:1,2020-03-04T10:03:00Z,27.3620,-90.1810,47.2,78.4,11144222
Anadarko,ioos:station:wmo:42379:1,2020-03-04T10:23:00Z,27.3620,-90.1810,47.2,77.9,11144222
Anadarko,ioos:station:wmo:42379:1,2020-03-04T10:43:00Z,27.3620,-90.1810,47.2,78.4,11144222
Anadarko,ioos:station:wmo:42379:1,2020-03-04T11:03:00Z,27.3620,-90.1810,47.2,78.2,11144222
Anadarko,ioos:station:wmo:42379:1,2020-03-04T11:23:00Z,27.3620,-90.1810,47.2,77.9,11144222
Anadarko,ioos:station:wmo:42379:1,2020-03-04T11:43:00Z,27.3620,-90.1810,47.2,78.9,11144222
Anadarko,ioos:station:wmo:42379:1,2020-03-04T12:03:00Z,27.3620,-90.1810,47.2,78.8,11144222
Anadarko,ioos:station:wmo:42379:1,2020-03-04T12:23:00Z,27.3620,-90.1810,47.2,78.3,11144222
Anadarko,ioos:station:wmo:42379:1,2020-03-04T12:43:00Z,27.3620,-90.1810,47.2,78.7,11144222
Anadarko,ioos:station:wmo:42379:1,2020-03-04T13:03:00Z,27.3620,-90.1810,47.2,78.7,11144222
Anadarko,ioos:station:wmo:42379:1,2020-03-04T13:23:00Z,27.3620,-90.1810,47.2,78.7,11144222
Anadarko,ioos:station:wmo:42379:1,2020-03-04T13:43:00Z,27.3620,-90.1810,47.2,78.6,11144222